FW3685 Weather Reports


Display with metric or nautical units.
time (UTC)temp
F
wind
direction
speed
MPH
gust
MPH
rain 1hr
in
rain 24hr
in
rain mn
in
humidity
%
barometer
mb
20210421164715 38 288 3.0 13.0 0.22 0.24 0.25 62 1018.6
20210421164636 38 313 5.0 13.0 0.20 0.20 0.20 65 1018.8
20210421162937 37 1 4.0 12.0 0.18 0.18 0.18 64 1018.8
20210421160447 37 244 5.0 11.0 0.09 0.08 0.09 70 1018.8
20210421153607 36 345 6.0 11.0 0.00 0.00 0.00 75 1018.6
20210421152404 36 254 2.0 7.0 0.00 0.00 0.00 80 1018.4
20210421144350 34 298 4.0 7.0 0.00 0.00 0.00 82 1018.0
20210421143530 34 283 4.0 10.0 0.00 0.00 0.00 84 1018.0
20210421142722 34 344 4.0 10.0 0.00 0.00 0.00 85 1017.8
20210421141824 33 320 2.0 5.0 0.00 0.00 0.00 89 1017.4
20210421134653 33 357 2.0 5.0 0.00 0.00 0.00 90 1017.4
20210421134239 33 306 1.0 4.0 0.00 0.00 0.00 90 1017.4
20210421133710 33 323 2.0 4.0 0.00 0.00 0.00 90 1017.4
20210421133314 32 331 1.0 4.0 0.00 0.00 0.00 90 1017.3
20210421132813 32 285 2.0 5.0 0.00 0.00 0.00 90 1017.3
20210421132156 32 16 2.0 5.0 0.00 0.00 0.00 91 1017.3
20210421131652 32 23 1.0 5.0 0.00 0.00 0.00 91 1017.3
20210421124609 31 300 2.0 4.0 0.00 0.00 0.00 92 1017.1
20210421124152 31 336 1.0 4.0 0.00 0.00 0.00 92 1017.0
20210421123741 31 330 2.0 3.0 0.00 0.00 0.00 92 1017.0
20210421123251 31 289 1.0 3.0 0.00 0.00 0.00 92 1017.0
20210421122759 31 343 0.0 3.0 0.00 0.00 0.00 92 1017.0
20210421122310 31 333 2.0 3.0 0.00 0.00 0.00 92 1016.8
20210421121750 31 285 0.0 3.0 0.00 0.00 0.00 92 1016.8
20210421121125 31 298 0.0 4.0 0.00 0.00 0.00 92 1016.7
20210421120509 31 4 1.0 6.0 0.00 0.00 0.00 92 1016.4
20210421114652 31 333 2.0 6.0 0.00 0.00 0.00 92 1016.3
20210421114204 31 20 1.0 4.0 0.00 0.00 0.00 92 1016.2
20210421113821 31 330 2.0 4.0 0.00 0.00 0.00 92 1016.2
20210421113151 31 323 1.0 4.0 0.00 0.00 0.00 92 1016.0
20210421112738 31 321 2.0 4.0 0.00 0.00 0.00 92 1016.0
20210421112147 31 0 1.0 4.0 0.00 0.00 0.00 92 1015.9
20210421111749 31 16 2.0 5.0 0.00 0.00 0.00 92 1015.9
20210421110858 31 348 2.0 5.0 0.00 0.00 0.00 92 1015.5
20210421104707 31 314 2.0 5.0 0.00 0.00 0.00 92 1015.4
20210421104211 31 13 1.0 5.0 0.00 0.00 0.00 92 1015.3
20210421103701 31 333 2.0 5.0 0.00 0.00 0.00 92 1015.3
20210421103157 31 3 2.0 5.0 0.00 0.00 0.00 92 1015.1
20210421102650 31 320 2.0 5.0 0.00 0.00 0.00 92 1015.1
20210421102151 31 306 3.0 6.0 0.00 0.00 0.00 92 1015.0
20210421101653 31 100 2.0 9.0 0.00 0.00 0.00 92 1015.0
20210421101143 31 71 3.0 9.0 0.00 0.00 0.00 92 1014.9
20210421100704 31 10 2.0 4.0 0.00 0.00 0.00 92 1014.7
20210421095139 31 336 2.0 5.0 0.00 0.00 0.00 92 1014.6
20210421094143 31 1 3.0 6.0 0.00 0.00 0.00 92 1014.5
20210421093645 31 320 2.0 9.0 0.00 0.00 0.00 92 1014.4
20210421093143 31 23 4.0 9.0 0.00 0.00 0.00 92 1014.4
20210421092645 31 17 3.0 9.0 0.00 0.00 0.00 93 1014.3
20210421092148 31 337 1.0 5.0 0.00 0.00 0.00 93 1014.1
20210421091654 31 323 2.0 6.0 0.00 0.00 0.00 93 1014.2
20210421091145 31 353 3.0 10.0 0.00 0.00 0.00 92 1014.3
20210421090706 31 25 4.0 9.0 0.00 0.00 0.00 92 1013.9
20210421084909 31 313 2.0 7.0 0.00 0.00 0.00 92 1013.9
20210421084143 31 16 4.0 7.0 0.00 0.00 0.00 92 1014.0
20210421083644 31 324 2.0 5.0 0.00 0.00 0.00 92 1013.7
20210421083143 31 276 2.0 4.0 0.00 0.00 0.00 92 1013.7
20210421082721 31 337 1.0 4.0 0.00 0.00 0.00 92 1013.7
20210421082145 31 316 2.0 6.0 0.00 0.00 0.00 92 1013.8
20210421081652 31 299 3.0 6.0 0.00 0.00 0.00 92 1013.7
20210421081328 31 348 2.0 6.0 0.00 0.00 0.00 92 1013.7
20210421080852 31 340 2.0 5.0 0.00 0.00 0.00 92 1013.5
20210421074850 31 340 2.0 5.0 0.00 0.00 0.00 92 1013.3
20210421074150 31 7 1.0 5.0 0.00 0.00 0.00 92 1013.3
20210421073718 31 6 2.0 5.0 0.00 0.00 0.00 92 1013.3
20210421073139 31 319 3.0 5.0 0.00 0.00 0.00 92 1013.3
20210421072641 31 327 2.0 6.0 0.00 0.00 0.00 92 1013.3
20210421072140 32 319 2.0 6.0 0.00 0.00 0.00 92 1012.9
20210421071654 32 320 1.0 4.0 0.00 0.00 0.00 92 1013.0
20210421071157 32 320 2.0 4.0 0.00 0.00 0.00 92 1013.0
20210421070821 32 347 2.0 4.0 0.00 0.00 0.00 92 1012.8
20210421070611 32 312 1.0 4.0 0.00 0.00 0.00 92 1012.8
20210421064643 32 11 1.0 4.0 0.00 0.00 0.00 92 1012.7
20210421064138 32 338 2.0 4.0 0.00 0.00 0.00 92 1012.8
20210421063641 32 0 1.0 4.0 0.00 0.00 0.00 92 1012.8
20210421063147 32 13 2.0 4.0 0.00 0.00 0.00 92 1013.0
20210421062921 32 13 0.0 4.0 0.00 0.00 0.00 92 1013.1
20210421062522 32 326 1.0 4.0 0.00 0.00 0.00 92 1013.1
20210421061641 32 358 1.0 6.0 0.00 0.00 0.00 92 1013.1
20210421061205 32 1 2.0 6.0 0.00 0.00 0.00 92 1013.0
20210421060639 32 341 2.0 3.0 0.00 0.00 0.00 92 1013.0
20210421060257 32 316 2.0 6.0 0.00 0.00 0.00 92 1013.3
20210421055548 32 324 2.0 6.0 0.00 0.00 0.00 92 1013.0
20210421054638 32 6 2.0 9.0 0.00 0.00 0.00 92 1013.3
20210421054137 32 285 3.0 9.0 0.00 0.00 0.00 92 1013.6
20210421053637 32 35 2.0 6.0 0.00 0.00 0.00 92 1013.1
20210421053203 32 28 2.0 7.0 0.00 0.00 0.00 92 1013.0
20210421053031 32 20 2.0 7.0 0.00 0.00 0.00 92 1013.9
20210421052609 32 276 2.0 6.0 0.00 0.00 0.00 92 1014.2
20210421051644 32 293 1.0 6.0 0.00 0.00 0.00 91 1014.0
20210421051136 32 336 2.0 6.0 0.00 0.00 0.00 91 1013.5
20210421050639 32 355 2.0 9.0 0.00 0.00 0.00 91 1013.1
20210421050142 32 354 4.0 9.0 0.00 0.00 0.00 91 1013.1
20210421045915 32 10 3.0 9.0 0.00 0.00 0.00 91 1013.3
20210421045408 32 354 2.0 9.0 0.00 0.00 0.00 91 1013.3
20210421044637 32 24 4.0 10.0 0.00 0.00 0.00 91 1013.5
20210421044140 32 336 5.0 12.0 0.00 0.00 0.00 91 1013.6
20210421043633 32 37 6.0 12.0 0.00 0.00 0.00 91 1013.4
20210421043137 32 65 5.0 10.0 0.00 0.00 0.00 90 1013.5
20210421042854 32 316 4.0 11.0 0.00 0.00 0.00 90 1013.5
20210421042412 32 321 4.0 11.0 0.00 0.00 0.00 90 1013.3
20210421041632 33 351 5.0 10.0 0.00 0.00 0.00 89 1013.4
20210421041130 33 23 4.0 16.0 0.00 0.00 0.00 88 1013.6
20210421040631 33 20 3.0 16.0 0.00 0.00 0.00 87 1013.7
20210421040131 34 65 3.0 14.0 0.00 0.00 0.00 86 1013.8
20210421035855 34 337 7.0 14.0 0.00 0.00 0.00 85 1013.5
20210421035312 34 11 4.0 13.0 0.00 0.00 0.00 85 1013.7
20210421034633 34 48 5.0 17.0 0.00 0.00 0.00 85 1013.6
20210421034128 35 35 10.0 17.0 0.00 0.00 0.00 84 1013.6
20210421033627 35 286 5.0 17.0 0.00 0.00 0.00 84 1013.4
20210421033130 35 27 6.0 17.0 0.00 0.00 0.00 83 1013.5
20210421032806 35 336 6.0 19.0 0.00 0.00 0.00 82 1013.7
20210421032306 35 341 9.0 19.0 0.00 0.00 0.00 82 1013.4
20210421031625 35 10 9.0 18.0 0.00 0.00 0.00 82 1013.5
20210421031127 35 11 7.0 27.0 0.00 0.00 0.00 82 1013.5
20210421030622 36 14 8.0 27.0 0.00 0.00 0.00 83 1013.4
20210421030140 36 350 6.0 16.0 0.00 0.00 0.00 83 1013.3
20210421025900 36 16 7.0 16.0 0.00 0.00 0.00 83 1013.3
20210421025440 36 276 8.0 15.0 0.00 0.00 0.00 83 1013.4
20210421024622 37 23 6.0 17.0 0.00 0.00 0.00 83 1013.4
20210421024120 37 353 8.0 17.0 0.00 0.00 0.00 82 1013.1
20210421023621 37 39 9.0 17.0 0.00 0.00 0.00 83 1012.9
20210421023120 37 25 8.0 17.0 0.00 0.00 0.00 83 1012.8
20210421022823 38 51 6.0 17.0 0.00 0.00 0.00 83 1012.6
20210421022322 38 30 5.0 15.0 0.00 0.00 0.00 83 1012.5
20210421021618 38 55 3.0 17.0 0.00 0.00 0.00 82 1012.3
20210421021113 38 28 6.0 17.0 0.00 0.00 0.00 81 1012.6
20210421020611 38 16 7.0 17.0 0.00 0.00 0.00 80 1012.9
20210421020114 39 337 6.0 15.0 0.00 0.00 0.00 79 1012.9
20210421015849 39 18 7.0 16.0 0.00 0.00 0.00 78 1012.8
20210421015421 39 18 7.0 16.0 0.00 0.00 0.00 77 1012.8
20210421014609 39 63 5.0 13.0 0.00 0.00 0.00 77 1012.5
20210421014108 39 54 5.0 17.0 0.00 0.00 0.00 77 1012.6
20210421013608 39 341 6.0 22.0 0.00 0.00 0.00 77 1012.3
20210421013111 40 48 7.0 22.0 0.00 0.00 0.00 76 1012.3
20210421012715 40 7 6.0 14.0 0.00 0.00 0.00 76 1012.4
20210421012229 40 31 5.0 15.0 0.00 0.00 0.00 73 1012.6
20210421011608 41 27 5.0 15.0 0.00 0.00 0.00 71 1012.3
20210421011110 41 73 6.0 14.0 0.00 0.00 0.00 70 1012.3
20210421010603 41 343 9.0 14.0 0.00 0.00 0.00 70 1012.1
20210421010106 41 341 6.0 13.0 0.00 0.00 0.00 70 1012.2
20210421005930 41 10 6.0 13.0 0.00 0.00 0.00 70 1012.0
20210421005540 42 0 6.0 19.0 0.00 0.00 0.00 69 1012.2
20210421004604 42 344 6.0 19.0 0.00 0.00 0.00 68 1012.6
20210421004103 42 329 7.0 14.0 0.00 0.00 0.00 68 1012.1
20210421003602 43 344 8.0 17.0 0.00 0.00 0.00 67 1011.9
20210421003103 43 7 7.0 17.0 0.00 0.00 0.00 67 1011.7
20210421002751 44 28 9.0 16.0 0.00 0.00 0.00 67 1011.4
20210421002327 44 341 9.0 18.0 0.00 0.00 0.00 67 1011.4
20210421001603 44 1 9.0 18.0 0.00 0.00 0.00 66 1011.3
20210421001101 44 355 7.0 17.0 0.00 0.00 0.00 66 1011.5
20210421000611 45 3 10.0 17.0 0.00 0.00 0.00 66 1012.0
20210421000108 45 39 7.0 17.0 0.00 0.00 0.00 65 1011.6
20210420235814 45 338 7.0 17.0 0.00 0.00 0.00 64 1011.3
20210420235407 46 351 7.0 15.0 0.00 0.00 0.00 64 1011.2
20210420234602 46 16 8.0 16.0 0.00 0.00 0.00 63 1011.2
20210420234116 46 357 6.0 16.0 0.00 0.00 0.00 63 1011.3
20210420233605 46 351 7.0 15.0 0.00 0.00 0.00 62 1010.9
20210420233107 46 18 9.0 15.0 0.00 0.00 0.00 62 1010.9
20210420232844 46 62 4.0 12.0 0.00 0.00 0.00 62 1010.7
20210420232513 47 354 7.0 12.0 0.00 0.00 0.00 61 1010.8
20210420231602 47 357 4.0 11.0 0.00 0.00 0.00 61 1010.8
20210420231103 47 59 6.0 17.0 0.00 0.00 0.00 61 1010.9
20210420230603 47 16 4.0 17.0 0.00 0.00 0.00 61 1011.0
20210420230103 48 4 6.0 17.0 0.00 0.00 0.00 60 1011.0
20210420225730 48 32 8.0 17.0 0.00 0.00 0.00 59 1011.1
20210420225313 49 23 6.0 13.0 0.00 0.00 0.00 60 1011.2
20210420224603 49 0 8.0 13.0 0.00 0.00 0.00 59 1011.3
20210420224102 49 343 4.0 11.0 0.00 0.00 0.00 60 1011.3
20210420223605 49 347 6.0 16.0 0.00 0.00 0.00 59 1011.2
20210420223123 50 354 5.0 16.0 0.00 0.00 0.00 59 1011.2
20210420222654 50 75 8.0 15.0 0.00 0.00 0.00 59 1011.2
20210420222158 50 0 7.0 15.0 0.00 0.00 0.00 60 1011.1
20210420221604 50 354 7.0 17.0 0.00 0.00 0.00 59 1011.1
20210420221102 51 21 7.0 17.0 0.00 0.00 0.00 58 1011.0
20210420220605 51 16 8.0 17.0 0.00 0.00 0.00 58 1011.3
20210420220106 51 62 7.0 15.0 0.00 0.00 0.00 58 1011.4
20210420215753 51 20 7.0 16.0 0.00 0.00 0.00 58 1011.3
20210420215250 52 18 8.0 16.0 0.00 0.00 0.00 57 1011.4
20210420214602 53 18 8.0 15.0 0.00 0.00 0.00 56 1011.3
20210420214108 53 49 6.0 19.0 0.00 0.00 0.00 58 1011.3
20210420213602 53 51 8.0 20.0 0.00 0.00 0.00 57 1011.4
20210420213111 53 10 9.0 20.0 0.00 0.00 0.00 56 1011.5
20210420212759 53 25 10.0 18.0 0.00 0.00 0.00 56 1011.3
20210420212442 54 25 8.0 18.0 0.00 0.00 0.00 56 1011.5
20210420211608 54 56 9.0 17.0 0.00 0.00 0.00 55 1011.4
20210420211104 55 6 8.0 17.0 0.00 0.00 0.00 54 1011.5
20210420210604 55 110 7.0 19.0 0.00 0.00 0.00 55 1011.4
20210420210102 54 62 8.0 19.0 0.00 0.00 0.00 56 1011.5
20210420205613 54 340 6.0 16.0 0.00 0.00 0.00 56 1011.6
20210420205203 55 38 9.0 15.0 0.00 0.00 0.00 56 1011.6
20210420204603 56 6 8.0 13.0 0.00 0.00 0.00 55 1011.5
20210420204102 56 358 5.0 13.0 0.00 0.00 0.00 55 1011.5
20210420203605 57 13 6.0 13.0 0.00 0.00 0.00 53 1011.5
20210420203103 58 341 4.0 7.0 0.00 0.00 0.00 53 1011.4
20210420202645 58 338 2.0 9.0 0.00 0.00 0.00 54 1011.4
20210420202207 58 4 6.0 9.0 0.00 0.00 0.00 53 1011.5
20210420201602 58 353 4.0 9.0 0.00 0.00 0.00 53 1011.6
20210420201103 58 47 4.0 7.0 0.00 0.00 0.00 52 1011.6
20210420200611 59 17 4.0 7.0 0.00 0.00 0.00 51 1011.8
20210420200102 59 38 5.0 7.0 0.00 0.00 0.00 51 1011.9
20210420195719 59 319 4.0 7.0 0.00 0.00 0.00 52 1011.9
20210420195141 60 300 3.0 7.0 0.00 0.00 0.00 52 1012.1
20210420194606 60 353 4.0 7.0 0.00 0.00 0.00 52 1012.1
20210420194102 60 319 3.0 7.0 0.00 0.00 0.00 52 1012.2
20210420193606 60 317 3.0 9.0 0.00 0.00 0.00 51 1012.2
20210420193105 60 357 5.0 9.0 0.00 0.00 0.00 51 1012.2
20210420192721 61 227 0.0 6.0 0.00 0.00 0.00 51 1012.3
20210420192240 61 269 3.0 6.0 0.00 0.00 0.00 53 1012.4
20210420191602 60 302 1.0 5.0 0.00 0.00 0.00 51 1012.5
20210420191105 60 189 2.0 5.0 0.00 0.00 0.00 51 1012.6
20210420190604 60 149 1.0 7.0 0.00 0.00 0.00 51 1012.7
20210420190107 59 203 3.0 10.0 0.00 0.00 0.00 57 1012.8
20210420185644 59 113 3.0 10.0 0.00 0.00 0.00 51 1012.9
20210420185141 59 344 4.0 7.0 0.00 0.00 0.00 52 1012.9
20210420184604 59 250 1.0 6.0 0.00 0.00 0.00 57 1013.0
20210420184102 59 13 4.0 6.0 0.00 0.00 0.00 54 1013.0
20210420183603 58 6 2.0 5.0 0.00 0.00 0.00 55 1013.3
20210420183103 58 265 3.0 5.0 0.00 0.00 0.00 56 1013.3
20210420182747 57 295 2.0 7.0 0.00 0.00 0.00 53 1013.5
20210420182318 57 113 3.0 7.0 0.00 0.00 0.00 53 1013.6
20210420181602 57 31 2.0 7.0 0.00 0.00 0.00 53 1013.6
20210420181102 58 30 5.0 7.0 0.00 0.00 0.00 52 1013.7
20210420180603 58 292 3.0 7.0 0.00 0.00 0.00 50 1013.8
20210420180121 58 227 2.0 4.0 0.00 0.00 0.00 52 1013.8
20210420175708 58 24 2.0 4.0 0.00 0.00 0.00 54 1013.9
20210420175105 58 54 2.0 4.0 0.00 0.00 0.00 53 1013.9
20210420174604 58 73 1.0 7.0 0.00 0.00 0.00 52 1013.9
20210420174104 57 147 4.0 7.0 0.00 0.00 0.00 53 1014.0
20210420173608 57 195 2.0 7.0 0.00 0.00 0.00 55 1014.2
20210420173102 57 195 4.0 7.0 0.00 0.00 0.00 52 1014.2
20210420172722 57 219 1.0 5.0 0.00 0.00 0.00 53 1014.3
20210420172232 56 123 2.0 5.0 0.00 0.00 0.00 53 1014.3
20210420171603 56 68 2.0 5.0 0.00 0.00 0.00 53 1014.4
20210420171103 56 127 1.0 6.0 0.00 0.00 0.00 54 1014.5
20210420170602 56 244 1.0 6.0 0.00 0.00 0.00 58 1014.6
20210420170325 56 87 1.0 5.0 0.00 0.00 0.00 54 1014.7
20210420170028 55 306 0.0 6.0 0.00 0.00 0.00 57 1014.8
20210420165843 55 38 1.0 6.0 0.00 0.00 0.00 56 1014.8